Data No,UTC Date,UTC Time,Latitude,Longitude,Course(deg),Temp(degC),Sal(psu)
4655,2006/10/10,4:54:07, 25-08.579N,119-59.886E,230.9,26.1159,33.3342
4656,2006/10/10,4:55:07, 25-08.437N,119-59.704E,230.9,26.1383,33.365
4657,2006/10/10,4:56:07, 25-08.294N,119-59.521E,231.1,26.1602,33.3973
4658,2006/10/10,4:57:06, 25-08.156N,119-59.343E,229.3,26.1837,33.4271
4659,2006/10/10,4:58:07, 25-08.016N,119-59.162E,229.9,26.2016,33.4519
4660,2006/10/10,4:59:07, 25-07.869N,119-58.989E,224,26.2234,33.4871
4661,2006/10/10,5:00:07, 25-07.723N,119-58.807E,225.8,26.2325,33.5155
4662,2006/10/10,5:01:07, 25-07.571N,119-58.634E,224.7,26.2217,33.5437
4663,2006/10/10,5:02:07, 25-07.420N,119-58.463E,225.1,26.1905,33.5669
4664,2006/10/10,5:03:07, 25-07.266N,119-58.286E,225.9,26.1431,33.5622
4665,2006/10/10,5:04:07, 25-07.108N,119-58.105E,226.7,26.1118,33.5111
4666,2006/10/10,5:05:07, 25-06.954N,119-57.929E,226.2,26.0078,33.4325
4667,2006/10/10,5:06:07, 25-06.798N,119-57.752E,225.5,25.9504,33.261
4668,2006/10/10,5:07:07, 25-06.641N,119-57.568E,225.9,25.914,33.0667
4669,2006/10/10,5:08:06, 25-06.488N,119-57.393E,224.9,25.8957,32.9312
4670,2006/10/10,5:09:06, 25-06.332N,119-57.215E,227.1,25.8974,32.8601
4671,2006/10/10,5:10:07, 25-06.178N,119-57.037E,225.3,25.898,32.8278
4672,2006/10/10,5:11:07, 25-06.024N,119-56.859E,225.5,25.8997,32.8116
4673,2006/10/10,5:12:07, 25-05.868N,119-56.677E,225.4,25.8941,32.7988
4674,2006/10/10,5:13:06, 25-05.720N,119-56.502E,227.6,25.8817,32.7928
4675,2006/10/10,5:14:07, 25-05.569N,119-56.322E,227.4,25.8768,32.7897
4676,2006/10/10,5:15:07, 25-05.418N,119-56.144E,226.8,25.8747,32.7892
4677,2006/10/10,5:16:07, 25-05.267N,119-55.964E,227.9,25.8673,32.7975
4678,2006/10/10,5:17:07, 25-05.117N,119-55.787E,227.3,25.877,32.8188
4679,2006/10/10,5:18:07, 25-04.970N,119-55.609E,226.9,25.8859,32.8586
4680,2006/10/10,5:19:07, 25-04.824N,119-55.430E,227.4,25.8917,32.898
4681,2006/10/10,5:20:07, 25-04.675N,119-55.252E,227.7,25.8992,32.9394
4682,2006/10/10,5:21:07, 25-04.531N,119-55.077E,229,25.8932,32.9624
4683,2006/10/10,5:22:07, 25-04.385N,119-54.894E,230.9,25.8911,32.9738
4684,2006/10/10,5:23:07, 25-04.235N,119-54.710E,228.7,25.8947,32.9736
4685,2006/10/10,5:24:07, 25-04.091N,119-54.529E,227.9,25.9037,32.9708
4686,2006/10/10,5:25:07, 25-03.948N,119-54.350E,227.5,25.9093,32.9714
4687,2006/10/10,5:26:07, 25-03.800N,119-54.166E,227,25.9124,32.9819
4688,2006/10/10,5:27:07, 25-03.655N,119-53.983E,227.7,25.9118,32.9981
4689,2006/10/10,5:28:07, 25-03.513N,119-53.804E,227.5,25.9139,33.0122
4690,2006/10/10,5:29:07, 25-03.369N,119-53.618E,228.9,25.9232,33.0185
4691,2006/10/10,5:30:07, 25-03.224N,119-53.438E,229.3,25.9235,33.0198
4692,2006/10/10,5:31:07, 25-03.081N,119-53.259E,228,25.9261,33.022
4693,2006/10/10,5:32:07, 25-02.936N,119-53.074E,227.9,25.9336,33.0274
4694,2006/10/10,5:33:07, 25-02.793N,119-52.892E,227.7,25.9369,33.0355
4695,2006/10/10,5:34:07, 25-02.646N,119-52.706E,230.4,25.9409,33.0446
4696,2006/10/10,5:35:07, 25-02.504N,119-52.524E,229.6,25.9477,33.0585
4697,2006/10/10,5:36:07, 25-02.364N,119-52.346E,229.1,25.9467,33.0797
4698,2006/10/10,5:37:07, 25-02.221N,119-52.166E,228.5,25.9528,33.0996
4699,2006/10/10,5:38:07, 25-02.071N,119-51.991E,228.9,25.9558,33.111
4700,2006/10/10,5:39:07, 25-01.926N,119-51.817E,229,25.9639,33.1239
4701,2006/10/10,5:40:07, 25-01.785N,119-51.643E,228.5,25.9778,33.1364
4702,2006/10/10,5:41:07, 25-01.641N,119-51.467E,226.5,25.9779,33.1599
4703,2006/10/10,5:42:07, 25-01.493N,119-51.289E,227.6,25.9691,33.2084
4704,2006/10/10,5:43:07, 25-01.346N,119-51.115E,228.3,25.9623,33.2417
4705,2006/10/10,5:44:07, 25-01.203N,119-50.943E,226.3,25.9654,33.2598
4706,2006/10/10,5:45:07, 25-01.058N,119-50.766E,227.6,25.9794,33.2711
4707,2006/10/10,5:46:07, 25-00.913N,119-50.587E,227.1,25.9883,33.2741
4708,2006/10/10,5:47:07, 25-00.769N,119-50.413E,230.2,25.9945,33.2779
4709,2006/10/10,5:48:07, 25-00.626N,119-50.238E,226.6,25.9934,33.2877
4710,2006/10/10,5:49:07, 25-00.483N,119-50.061E,231.3,25.9868,33.2999
4711,2006/10/10,5:50:07, 25-00.342N,119-49.887E,231.1,25.9861,33.3102
4712,2006/10/10,5:51:07, 25-00.199N,119-49.714E,226.1,25.9885,33.3184
4713,2006/10/10,5:52:07, 25-00.057N,119-49.542E,227.2,25.9854,33.327
4714,2006/10/10,5:53:07, 24-59.918N,119-49.368E,227.9,25.9856,33.3341
4715,2006/10/10,5:54:07, 24-59.774N,119-49.187E,226.5,25.9894,33.3392
4716,2006/10/10,5:55:07, 24-59.634N,119-49.017E,229.2,25.9901,33.3434
4717,2006/10/10,5:56:07, 24-59.480N,119-48.856E,224.1,25.996,33.3494
4718,2006/10/10,5:57:07, 24-59.329N,119-48.699E,221.1,25.9935,33.3545
4719,2006/10/10,5:58:07, 24-59.176N,119-48.537E,222.3,25.9973,33.3599
4720,2006/10/10,5:59:07, 24-59.016N,119-48.373E,222.6,25.9925,33.3647
4721,2006/10/10,6:00:07, 24-58.858N,119-48.212E,225.4,25.9969,33.3667
4723,2006/10/10,6:02:07, 24-58.540N,119-47.892E,223.4,26.0012,33.3449
4724,2006/10/10,6:03:07, 24-58.381N,119-47.733E,221.9,26.0008,33.3016
4725,2006/10/10,6:04:07, 24-58.223N,119-47.570E,221.2,25.9965,33.2487
4726,2006/10/10,6:05:07, 24-58.083N,119-47.396E,228.4,25.9894,33.1969
4727,2006/10/10,6:06:07, 24-57.938N,119-47.223E,226.8,25.9786,33.1506
4728,2006/10/10,6:07:07, 24-57.792N,119-47.046E,229.1,25.9779,33.11
4729,2006/10/10,6:08:07, 24-57.650N,119-46.872E,228.8,25.9711,33.073
4730,2006/10/10,6:09:07, 24-57.507N,119-46.700E,227.7,25.9678,33.0487
4731,2006/10/10,6:10:07, 24-57.366N,119-46.533E,229.2,25.9605,33.0341
4732,2006/10/10,6:11:07, 24-57.224N,119-46.363E,227.1,25.9519,33.0194
4733,2006/10/10,6:12:07, 24-57.080N,119-46.189E,228.5,25.9326,33.0061
4734,2006/10/10,6:13:07, 24-56.940N,119-46.015E,231.1,25.9339,32.9931
4735,2006/10/10,6:14:07, 24-56.801N,119-45.844E,228.7,25.9362,32.9805
4736,2006/10/10,6:15:07, 24-56.657N,119-45.670E,229.1,25.9359,32.9697
4737,2006/10/10,6:16:07, 24-56.516N,119-45.496E,228.1,25.944,32.9525
4738,2006/10/10,6:17:07, 24-56.376N,119-45.324E,228.4,25.9549,32.9374
4739,2006/10/10,6:18:07, 24-56.238N,119-45.154E,228.4,25.9602,32.9182
4740,2006/10/10,6:19:07, 24-56.095N,119-44.982E,228.7,25.9543,32.9003
4741,2006/10/10,6:20:07, 24-55.954N,119-44.811E,226.8,25.9542,32.8718
4742,2006/10/10,6:21:07, 24-55.812N,119-44.639E,227.5,25.9409,32.837
4743,2006/10/10,6:22:07, 24-55.673N,119-44.470E,227,25.9259,32.8008
4744,2006/10/10,6:23:07, 24-55.528N,119-44.296E,227.8,25.9293,32.7602
4745,2006/10/10,6:24:07, 24-55.386N,119-44.125E,226.2,25.9228,32.7207
4746,2006/10/10,6:25:07, 24-55.243N,119-43.953E,227.3,25.9115,32.6895
4747,2006/10/10,6:26:07, 24-55.097N,119-43.782E,227.3,25.9177,32.6599
4748,2006/10/10,6:27:07, 24-54.956N,119-43.607E,231.2,25.9186,32.6406
4749,2006/10/10,6:28:07, 24-54.816N,119-43.431E,228.3,25.8987,32.6212
4750,2006/10/10,6:29:07, 24-54.676N,119-43.255E,228.7,25.8962,32.6066
4751,2006/10/10,6:30:07, 24-54.536N,119-43.079E,230.3,25.8813,32.6138
4752,2006/10/10,6:31:07, 24-54.394N,119-42.903E,229.1,25.8743,32.611
4753,2006/10/10,6:32:07, 24-54.254N,119-42.727E,227.1,25.8695,32.592
4754,2006/10/10,6:33:07, 24-54.111N,119-42.549E,229.3,25.8657,32.5733
4755,2006/10/10,6:34:07, 24-53.970N,119-42.372E,229.9,25.8578,32.5572
4756,2006/10/10,6:35:07, 24-53.828N,119-42.194E,229.3,25.851,32.5326
4757,2006/10/10,6:36:07, 24-53.684N,119-42.017E,231.3,25.8554,32.5073
4758,2006/10/10,6:37:07, 24-53.540N,119-41.837E,227.8,25.8573,32.4864
4759,2006/10/10,6:38:07, 24-53.397N,119-41.655E,228.4,25.8543,32.4694
4760,2006/10/10,6:39:07, 24-53.255N,119-41.474E,228.5,25.8644,32.4604
4761,2006/10/10,6:40:07, 24-53.112N,119-41.291E,227.7,25.8689,32.4585
4762,2006/10/10,6:41:07, 24-52.970N,119-41.107E,228.9,25.8678,32.4586
4763,2006/10/10,6:42:07, 24-52.828N,119-40.924E,228.6,25.8718,32.4648
4764,2006/10/10,6:43:07, 24-52.684N,119-40.744E,228.7,25.8756,32.4721
4765,2006/10/10,6:44:07, 24-52.540N,119-40.562E,229.6,25.8805,32.481
4766,2006/10/10,6:45:07, 24-52.398N,119-40.379E,228.7,25.8854,32.4894
4767,2006/10/10,6:46:07, 24-52.255N,119-40.194E,229.2,25.8911,32.5011
4768,2006/10/10,6:47:07, 24-52.113N,119-40.009E,230.6,25.8964,32.5162
4769,2006/10/10,6:48:07, 24-51.969N,119-39.823E,229.9,25.8986,32.5274
4770,2006/10/10,6:49:07, 24-51.827N,119-39.636E,228.5,25.9034,32.5345
4771,2006/10/10,6:50:07, 24-51.685N,119-39.449E,228.6,25.9114,32.5381
4772,2006/10/10,6:51:07, 24-51.542N,119-39.262E,229.5,25.9176,32.5385
4773,2006/10/10,6:52:07, 24-51.399N,119-39.073E,229.5,25.9204,32.5384
4774,2006/10/10,6:53:07, 24-51.257N,119-38.885E,229.9,25.9232,32.5406
4775,2006/10/10,6:54:07, 24-51.114N,119-38.697E,231,25.9275,32.5457
4776,2006/10/10,6:55:07, 24-50.972N,119-38.507E,230.8,25.9366,32.5503
4777,2006/10/10,6:56:07, 24-50.831N,119-38.315E,230.2,25.9459,32.5544
4778,2006/10/10,6:57:07, 24-50.688N,119-38.125E,230.7,25.9426,32.5675
4779,2006/10/10,6:58:07, 24-50.547N,119-37.934E,230.5,25.9539,32.5825
4780,2006/10/10,6:59:07, 24-50.404N,119-37.742E,231.6,25.9536,32.5938
4781,2006/10/10,7:00:07, 24-50.263N,119-37.550E,230.6,25.9546,32.6001
4782,2006/10/10,7:01:07, 24-50.122N,119-37.357E,232.3,25.9559,32.6045
4783,2006/10/10,7:02:07, 24-49.981N,119-37.166E,230.4,25.9579,32.6095
4784,2006/10/10,7:03:07, 24-49.838N,119-36.974E,230.3,25.9525,32.6172
4785,2006/10/10,7:04:07, 24-49.697N,119-36.781E,229.2,25.9549,32.6266
4786,2006/10/10,7:05:07, 24-49.555N,119-36.590E,230.6,25.9583,32.6494
4787,2006/10/10,7:06:07, 24-49.415N,119-36.397E,230,25.9551,32.6723
4788,2006/10/10,7:07:07, 24-49.275N,119-36.202E,230.7,25.96,32.695
4789,2006/10/10,7:08:07, 24-49.136N,119-36.007E,231.6,25.9661,32.7244
4790,2006/10/10,7:09:07, 24-48.994N,119-35.816E,231.3,25.981,32.7568
4791,2006/10/10,7:10:07, 24-48.852N,119-35.622E,230.8,25.9909,32.7893
4792,2006/10/10,7:11:07, 24-48.711N,119-35.428E,230.7,25.9776,32.8182
4793,2006/10/10,7:12:07, 24-48.570N,119-35.238E,233.1,25.9903,32.8484
4794,2006/10/10,7:13:07, 24-48.428N,119-35.047E,231.2,25.9934,32.8773
4795,2006/10/10,7:14:07, 24-48.285N,119-34.867E,232.3,25.9957,32.9072
4796,2006/10/10,7:15:07, 24-48.149N,119-34.682E,233.1,26.0036,32.9419
4797,2006/10/10,7:16:07, 24-48.021N,119-34.496E,233.5,26.0079,32.9923
4798,2006/10/10,7:17:07, 24-47.891N,119-34.315E,232.9,26.0101,33.0547
4799,2006/10/10,7:18:07, 24-47.760N,119-34.130E,232.3,25.9955,33.1262
4800,2006/10/10,7:19:07, 24-47.630N,119-33.946E,232,25.9965,33.1809
4801,2006/10/10,7:20:07, 24-47.499N,119-33.763E,231.5,25.9967,33.206
4802,2006/10/10,7:21:07, 24-47.370N,119-33.580E,232,25.9985,33.2178
4803,2006/10/10,7:22:07, 24-47.240N,119-33.396E,231.2,25.9833,33.2223
4804,2006/10/10,7:23:07, 24-47.110N,119-33.210E,232.7,25.9829,33.2205
4805,2006/10/10,7:24:07, 24-46.978N,119-33.025E,230.8,25.9719,33.2101
4806,2006/10/10,7:25:07, 24-46.846N,119-32.838E,233,25.9654,33.1918
4807,2006/10/10,7:26:07, 24-46.712N,119-32.652E,232.4,25.9564,33.1768
4808,2006/10/10,7:27:07, 24-46.579N,119-32.466E,234.1,25.9613,33.1678
4809,2006/10/10,7:28:07, 24-46.446N,119-32.279E,232.5,25.9539,33.1586
4810,2006/10/10,7:29:07, 24-46.313N,119-32.092E,231.8,25.9458,33.1412
4811,2006/10/10,7:30:07, 24-46.181N,119-31.902E,232.1,25.9338,33.118
4812,2006/10/10,7:31:07, 24-46.047N,119-31.714E,233.8,25.9394,33.0944
4813,2006/10/10,7:32:07, 24-45.914N,119-31.525E,233.3,25.9394,33.0742
4814,2006/10/10,7:33:07, 24-45.780N,119-31.334E,234.7,25.9483,33.0607
4815,2006/10/10,7:34:07, 24-45.646N,119-31.142E,232.8,25.949,33.049
4816,2006/10/10,7:35:07, 24-45.515N,119-30.949E,232.8,25.9481,33.0405
4817,2006/10/10,7:36:07, 24-45.379N,119-30.759E,232.5,25.9542,33.0347
4818,2006/10/10,7:37:07, 24-45.246N,119-30.567E,232.4,25.9634,33.0289
4819,2006/10/10,7:38:07, 24-45.113N,119-30.374E,233.6,25.97,33.0299
4820,2006/10/10,7:39:07, 24-44.980N,119-30.179E,233.6,25.9757,33.0323
4821,2006/10/10,7:40:07, 24-44.846N,119-29.988E,234.2,25.9758,33.0363
4822,2006/10/10,7:41:07, 24-44.714N,119-29.794E,234.8,25.9783,33.042
4823,2006/10/10,7:42:07, 24-44.581N,119-29.598E,234.1,25.9767,33.0498
4824,2006/10/10,7:43:07, 24-44.449N,119-29.403E,234.8,25.9832,33.0582
4825,2006/10/10,7:44:07, 24-44.316N,119-29.208E,234.7,25.9933,33.0691
4826,2006/10/10,7:45:07, 24-44.184N,119-29.013E,234.9,25.9955,33.0803
4827,2006/10/10,7:46:07, 24-44.052N,119-28.819E,233.1,26.0032,33.097
4828,2006/10/10,7:47:07, 24-43.920N,119-28.624E,232.9,26.0107,33.1182
4829,2006/10/10,7:48:07, 24-43.789N,119-28.433E,232.7,26.0255,33.1464
4830,2006/10/10,7:49:07, 24-43.659N,119-28.243E,230.3,26.0383,33.1838
4831,2006/10/10,7:50:07, 24-43.528N,119-28.054E,232.4,26.0457,33.2161
4832,2006/10/10,7:51:07, 24-43.395N,119-27.868E,233.5,26.0442,33.2604
4833,2006/10/10,7:52:07, 24-43.265N,119-27.680E,230.6,26.0511,33.3073
4834,2006/10/10,7:53:07, 24-43.134N,119-27.496E,234.1,26.0538,33.3438
4835,2006/10/10,7:54:07, 24-43.006N,119-27.312E,233.7,26.0602,33.3742
4836,2006/10/10,7:55:07, 24-42.878N,119-27.129E,233.7,26.0605,33.3966
4837,2006/10/10,7:56:07, 24-42.752N,119-26.945E,232.9,26.0445,33.4197
4838,2006/10/10,7:57:07, 24-42.624N,119-26.762E,233.5,26.0377,33.4457
4839,2006/10/10,7:58:07, 24-42.497N,119-26.579E,232.1,26.0277,33.4551
4840,2006/10/10,7:59:07, 24-42.369N,119-26.398E,232.1,26.0315,33.4573
4841,2006/10/10,8:00:07, 24-42.244N,119-26.214E,233.6,26.0398,33.4577
4842,2006/10/10,8:01:07, 24-42.116N,119-26.032E,231.4,26.049,33.4588
4843,2006/10/10,8:02:07, 24-41.990N,119-25.852E,232.6,26.0524,33.4637
4844,2006/10/10,8:03:07, 24-41.863N,119-25.672E,234.3,26.0601,33.4712
4845,2006/10/10,8:04:07, 24-41.736N,119-25.492E,233,26.0626,33.4805
4846,2006/10/10,8:05:07, 24-41.611N,119-25.310E,232.2,26.0492,33.4871
4847,2006/10/10,8:06:07, 24-41.485N,119-25.130E,233,26.046,33.4919
4848,2006/10/10,8:07:07, 24-41.357N,119-24.949E,231.7,26.0407,33.4909
4849,2006/10/10,8:08:07, 24-41.229N,119-24.769E,234,26.045,33.4866
4850,2006/10/10,8:09:07, 24-41.097N,119-24.587E,232.5,26.0435,33.4835
4851,2006/10/10,8:10:07, 24-40.966N,119-24.403E,233.7,26.0471,33.4804
4852,2006/10/10,8:11:07, 24-40.841N,119-24.223E,232.3,26.0516,33.4746
4853,2006/10/10,8:12:07, 24-40.711N,119-24.039E,233.2,26.0534,33.4667
4854,2006/10/10,8:13:07, 24-40.582N,119-23.858E,231.6,26.0531,33.461
4855,2006/10/10,8:14:07, 24-40.455N,119-23.677E,231.9,26.0532,33.4553
4856,2006/10/10,8:15:07, 24-40.326N,119-23.496E,230.2,26.0533,33.4494
4857,2006/10/10,8:16:07, 24-40.197N,119-23.313E,232.3,26.0426,33.4416
4858,2006/10/10,8:17:07, 24-40.073N,119-23.132E,231.6,26.0453,33.4386
4859,2006/10/10,8:18:07, 24-39.946N,119-22.951E,232.7,26.0408,33.4336
4860,2006/10/10,8:19:07, 24-39.817N,119-22.770E,234.2,26.0394,33.4263
4861,2006/10/10,8:20:07, 24-39.688N,119-22.587E,233.5,26.0438,33.4193
4862,2006/10/10,8:21:07, 24-39.558N,119-22.405E,233,26.0425,33.4134
4863,2006/10/10,8:22:07, 24-39.430N,119-22.222E,232.6,26.0477,33.4078
4864,2006/10/10,8:23:07, 24-39.302N,119-22.039E,232.6,26.0506,33.4029
4865,2006/10/10,8:24:07, 24-39.173N,119-21.856E,231.1,26.0452,33.3967
4866,2006/10/10,8:25:07, 24-39.043N,119-21.673E,231.9,26.0391,33.3908
4867,2006/10/10,8:26:07, 24-38.913N,119-21.489E,231.7,26.0324,33.3874
4868,2006/10/10,8:27:07, 24-38.783N,119-21.303E,232.4,26.0334,33.3829
4869,2006/10/10,8:28:07, 24-38.653N,119-21.119E,233.6,26.0242,33.3798
4870,2006/10/10,8:29:07, 24-38.523N,119-20.936E,235.3,26.032,33.3768
4871,2006/10/10,8:30:07, 24-38.394N,119-20.749E,233.5,26.0268,33.3732
4872,2006/10/10,8:31:07, 24-38.264N,119-20.565E,232.5,26.0331,33.368
4873,2006/10/10,8:32:07, 24-38.133N,119-20.379E,231.4,26.0257,33.3658
4874,2006/10/10,8:33:07, 24-38.004N,119-20.193E,230.4,26.023,33.3631
4875,2006/10/10,8:34:07, 24-37.874N,119-20.007E,234.8,26.0259,33.3615
4876,2006/10/10,8:35:07, 24-37.746N,119-19.821E,233.2,26.0259,33.36
4877,2006/10/10,8:36:07, 24-37.616N,119-19.635E,232.9,26.0192,33.3569
4878,2006/10/10,8:37:07, 24-37.490N,119-19.447E,233.3,26.0223,33.3586
4879,2006/10/10,8:38:07, 24-37.364N,119-19.259E,233.2,26.0253,33.355
4880,2006/10/10,8:39:07, 24-37.235N,119-19.074E,232.8,26.0244,33.3538
4881,2006/10/10,8:40:07, 24-37.108N,119-18.885E,233.2,26.0301,33.3537
4882,2006/10/10,8:41:07, 24-36.979N,119-18.697E,232.3,26.0351,33.3544
4883,2006/10/10,8:42:07, 24-36.852N,119-18.510E,232.7,26.0369,33.3575
4884,2006/10/10,8:43:07, 24-36.725N,119-18.321E,233,26.0413,33.3632
4885,2006/10/10,8:44:07, 24-36.595N,119-18.135E,234.4,26.0603,33.3696
4886,2006/10/10,8:45:07, 24-36.468N,119-17.948E,234.4,26.0498,33.3787
4887,2006/10/10,8:46:07, 24-36.342N,119-17.760E,232.5,26.0582,33.3885
4888,2006/10/10,8:47:07, 24-36.215N,119-17.574E,234.2,26.0757,33.3959
4889,2006/10/10,8:48:07, 24-36.086N,119-17.389E,233.6,26.0712,33.3987
4890,2006/10/10,8:49:07, 24-35.961N,119-17.203E,231.3,26.0936,33.4092
4891,2006/10/10,8:50:07, 24-35.836N,119-17.019E,232.4,26.0927,33.4194
4892,2006/10/10,8:51:07, 24-35.709N,119-16.835E,233.2,26.1088,33.4353
4893,2006/10/10,8:52:07, 24-35.582N,119-16.653E,234.2,26.1123,33.447
4894,2006/10/10,8:53:07, 24-35.457N,119-16.470E,231.4,26.128,33.4578
4895,2006/10/10,8:54:07, 24-35.332N,119-16.286E,231.2,26.138,33.4658
4896,2006/10/10,8:55:07, 24-35.205N,119-16.104E,235.4,26.1388,33.4732
4897,2006/10/10,8:56:07, 24-35.079N,119-15.923E,232.8,26.1461,33.4778
4898,2006/10/10,8:57:07, 24-34.953N,119-15.743E,231.5,26.1411,33.4808
4899,2006/10/10,8:58:07, 24-34.826N,119-15.564E,231.9,26.1392,33.4816
4900,2006/10/10,8:59:07, 24-34.700N,119-15.384E,232.4,26.1217,33.4767
4901,2006/10/10,9:00:07, 24-34.572N,119-15.205E,233.5,26.0951,33.4679
4902,2006/10/10,9:01:07, 24-34.447N,119-15.023E,233.4,26.0864,33.4503
4903,2006/10/10,9:02:07, 24-34.320N,119-14.843E,233.3,26.0649,33.4322
4904,2006/10/10,9:03:07, 24-34.195N,119-14.664E,232.6,26.0464,33.4146
4905,2006/10/10,9:04:07, 24-34.067N,119-14.485E,234.3,26.0374,33.3965
4906,2006/10/10,9:05:07, 24-33.940N,119-14.306E,231.5,26.0337,33.3817
4907,2006/10/10,9:06:07, 24-33.811N,119-14.127E,232.8,26.0327,33.3684
4908,2006/10/10,9:07:07, 24-33.682N,119-13.947E,232.7,26.037,33.3588
4909,2006/10/10,9:08:07, 24-33.554N,119-13.767E,231,26.0325,33.3517
4910,2006/10/10,9:09:07, 24-33.426N,119-13.585E,231,26.0375,33.3433
4911,2006/10/10,9:10:07, 24-33.298N,119-13.403E,231.8,26.0442,33.3347
4912,2006/10/10,9:11:07, 24-33.169N,119-13.224E,233.5,26.0356,33.328
4913,2006/10/10,9:12:07, 24-33.041N,119-13.043E,230.5,26.0176,33.3173
4914,2006/10/10,9:13:07, 24-32.911N,119-12.863E,230.6,25.9988,33.3013
4915,2006/10/10,9:14:07, 24-32.781N,119-12.679E,232.7,25.9778,33.2832
4916,2006/10/10,9:15:07, 24-32.651N,119-12.497E,231.8,25.9749,33.2614
4917,2006/10/10,9:16:07, 24-32.520N,119-12.314E,231.5,25.9919,33.2454
4918,2006/10/10,9:17:07, 24-32.391N,119-12.130E,233.3,25.9887,33.2346
4919,2006/10/10,9:18:07, 24-32.261N,119-11.946E,231.4,25.9784,33.2215
4920,2006/10/10,9:19:07, 24-32.131N,119-11.763E,232.9,25.9705,33.2013
4921,2006/10/10,9:20:07, 24-31.999N,119-11.581E,234.3,25.9651,33.1816
4922,2006/10/10,9:21:07, 24-31.869N,119-11.398E,232,25.9626,33.1668
4923,2006/10/10,9:22:07, 24-31.739N,119-11.215E,228.5,25.9617,33.1561
4924,2006/10/10,9:23:07, 24-31.605N,119-11.038E,228.5,25.9566,33.1461
4925,2006/10/10,9:24:07, 24-31.466N,119-10.862E,229.8,25.9472,33.1408
4926,2006/10/10,9:25:07, 24-31.331N,119-10.683E,229.3,25.952,33.1333
4927,2006/10/10,9:26:07, 24-31.195N,119-10.507E,230.4,25.9342,33.1292
4928,2006/10/10,9:27:07, 24-31.059N,119-10.329E,230.3,25.9379,33.1234
4929,2006/10/10,9:28:07, 24-30.922N,119-10.151E,230.2,25.9382,33.1243
4930,2006/10/10,9:29:07, 24-30.786N,119-09.973E,227.9,25.9393,33.1253
4931,2006/10/10,9:30:07, 24-30.644N,119-09.800E,228.8,25.941,33.1283
4932,2006/10/10,9:31:07, 24-30.504N,119-09.624E,229.7,25.9461,33.1303
4933,2006/10/10,9:32:07, 24-30.361N,119-09.452E,227.2,25.9409,33.1307
4934,2006/10/10,9:33:07, 24-30.219N,119-09.276E,227.6,25.9427,33.1295
4935,2006/10/10,9:34:07, 24-30.076N,119-09.101E,228.5,25.9478,33.129
4936,2006/10/10,9:35:07, 24-29.935N,119-08.925E,229.2,25.9481,33.1284
4937,2006/10/10,9:36:07, 24-29.793N,119-08.746E,229.8,25.9502,33.1275
4938,2006/10/10,9:37:07, 24-29.650N,119-08.571E,228.9,25.9599,33.1283
4939,2006/10/10,9:38:07, 24-29.507N,119-08.396E,229.9,25.9567,33.1299
4940,2006/10/10,9:39:07, 24-29.365N,119-08.217E,228.7,25.961,33.131
4941,2006/10/10,9:40:07, 24-29.226N,119-08.037E,228.5,25.9623,33.1323
4943,2006/10/10,9:42:07, 24-28.943N,119-07.682E,228.6,25.9722,33.138
4944,2006/10/10,9:43:07, 24-28.803N,119-07.505E,229.6,25.9843,33.142
4945,2006/10/10,9:44:07, 24-28.664N,119-07.324E,229.7,25.9901,33.1488
4946,2006/10/10,9:45:07, 24-28.521N,119-07.145E,229.8,25.9964,33.157
4947,2006/10/10,9:46:07, 24-28.381N,119-06.964E,228.8,26.0168,33.1665
4948,2006/10/10,9:47:07, 24-28.241N,119-06.785E,228.7,26.0201,33.1711
4949,2006/10/10,9:48:07, 24-28.100N,119-06.605E,227.9,26.0341,33.1782
4950,2006/10/10,9:49:07, 24-27.961N,119-06.427E,227.9,26.0458,33.188
4951,2006/10/10,9:50:07, 24-27.823N,119-06.254E,230.3,26.0527,33.2015
4952,2006/10/10,9:51:07, 24-27.684N,119-06.082E,229.1,26.0873,33.2225
4953,2006/10/10,9:52:07, 24-27.547N,119-05.912E,228.5,26.1221,33.2691
4954,2006/10/10,9:53:07, 24-27.408N,119-05.738E,228.5,26.1645,33.3209
4955,2006/10/10,9:54:07, 24-27.272N,119-05.566E,229.2,26.1959,33.3673
4956,2006/10/10,9:55:07, 24-27.133N,119-05.396E,227.2,26.2009,33.4004
4957,2006/10/10,9:56:07, 24-26.996N,119-05.227E,228.1,26.2066,33.4272
4958,2006/10/10,9:57:07, 24-26.860N,119-05.057E,227.1,26.2039,33.4364
4959,2006/10/10,9:58:07, 24-26.723N,119-04.886E,226.3,26.2042,33.4388
4960,2006/10/10,9:59:07, 24-26.587N,119-04.717E,228.7,26.2033,33.4392
4961,2006/10/10,10:00:07, 24-26.451N,119-04.546E,227.9,26.2072,33.4391
4962,2006/10/10,10:01:07, 24-26.314N,119-04.377E,229.7,26.2084,33.4394
4963,2006/10/10,10:02:07, 24-26.176N,119-04.210E,228.6,26.2127,33.4413
4964,2006/10/10,10:03:07, 24-26.038N,119-04.040E,227.3,26.2161,33.4426
4965,2006/10/10,10:04:07, 24-25.902N,119-03.868E,228.8,26.2095,33.4436
4966,2006/10/10,10:05:07, 24-25.765N,119-03.698E,228.6,26.2095,33.445
4967,2006/10/10,10:06:07, 24-25.628N,119-03.527E,226.2,26.2116,33.4452
4968,2006/10/10,10:07:07, 24-25.491N,119-03.357E,226.5,26.2039,33.4455
4969,2006/10/10,10:08:07, 24-25.354N,119-03.188E,227.9,26.2025,33.444
4970,2006/10/10,10:09:07, 24-25.217N,119-03.019E,227.3,26.2153,33.4439
4971,2006/10/10,10:10:07, 24-25.082N,119-02.848E,226.4,26.209,33.4417
4972,2006/10/10,10:11:07, 24-24.946N,119-02.678E,228.3,26.2151,33.4415
4973,2006/10/10,10:12:07, 24-24.809N,119-02.509E,228.6,26.2129,33.441
4974,2006/10/10,10:13:07, 24-24.676N,119-02.337E,229.1,26.212,33.4401
4975,2006/10/10,10:14:07, 24-24.538N,119-02.170E,230.4,26.2119,33.44
4976,2006/10/10,10:15:07, 24-24.400N,119-02.001E,227.9,26.2049,33.4404
4977,2006/10/10,10:16:07, 24-24.264N,119-01.831E,229.3,26.2097,33.4399
4978,2006/10/10,10:17:07, 24-24.129N,119-01.662E,229.2,26.2059,33.4384
4979,2006/10/10,10:18:07, 24-23.994N,119-01.489E,229.5,26.2041,33.437
4980,2006/10/10,10:19:07, 24-23.858N,119-01.318E,229.9,26.2021,33.4346
4981,2006/10/10,10:20:07, 24-23.718N,119-01.154E,229,26.2091,33.4321
4982,2006/10/10,10:21:07, 24-23.579N,119-00.987E,227.9,26.2048,33.4299
4983,2006/10/10,10:22:07, 24-23.440N,119-00.820E,228.7,26.1927,33.4274
4984,2006/10/10,10:23:07, 24-23.301N,119-00.653E,227.4,26.1971,33.425
4985,2006/10/10,10:24:07, 24-23.164N,119-00.489E,226.5,26.198,33.4228
4986,2006/10/10,10:25:07, 24-23.026N,119-00.323E,226.6,26.1886,33.4214
4987,2006/10/10,10:26:07, 24-22.889N,119-00.156E,227.5,26.1956,33.4206
4988,2006/10/10,10:27:07, 24-22.750N,118-59.991E,227,26.185,33.4217
4989,2006/10/10,10:28:07, 24-22.611N,118-59.823E,228.2,26.1884,33.4222
4990,2006/10/10,10:29:07, 24-22.473N,118-59.654E,228.7,26.1925,33.4234
4991,2006/10/10,10:30:07, 24-22.336N,118-59.489E,228.5,26.1895,33.4228
4992,2006/10/10,10:31:07, 24-22.199N,118-59.322E,225,26.1928,33.423
4993,2006/10/10,10:32:07, 24-22.062N,118-59.157E,227.4,26.199,33.4241
4994,2006/10/10,10:33:07, 24-21.927N,118-58.989E,228.1,26.1947,33.4267